Regional Weather Roundup
Issued by NWS

Home | Current Version | Previous Version | Graphics & Text | Print | Product List | Glossary On
Versions: 1 2 3 4 5 6 7 8 9 10 11 12 13 14 15 16 17 18 19 20 21 22 23 24 25 26 27 28 29 30 31 32 33 34 35 36 37 38 39 40 41 42 43 44 45 46 47 48 49 50
000
ASUS43 KBIS 200610
RWRND

NORTH DAKOTA REGIONAL WEATHER ROUNDUP
NATIONAL WEATHER SERVICE BISMARCK ND
1200 AM CST SAT DEC 20 2014

NOTE: "FAIR" INDICATES FEW OR NO CLOUDS BELOW 12,000 FEET WITH NO
SIGNIFICANT WEATHER AND/OR OBSTRUCTIONS TO VISIBILITY.


NDZ001>003-009>011-017-200700-
NORTHWEST NORTH DAKOTA

CITY           SKY/WX    TMP DP  RH WIND       PRES   REMARKS
WILLISTON      FOG       15  13  91 CALM      29.91S VSB 1/2
6HR MIN TEMP:  15; 6HR MAX TEMP:  22;

MINOT          CLOUDY    23  21  92 S5        29.93S FOG     WCI  17
MINOT AFB      FRZ DRZL  23  23 100 SW1       29.94S VSB 3/4
$$

NDZ018>021-031>035-040>046-200700-
SOUTHWEST NORTH DAKOTA

CITY           SKY/WX    TMP DP  RH WIND       PRES   REMARKS
BISMARCK       CLOUDY    15  11  83 CALM      29.96S
6HR MIN TEMP:  15; 6HR MAX TEMP:  28;

DICKINSON      CLEAR     22  16  78 S3        29.87S
GARRISON         N/A     26  24  92 CALM      29.93R
6HR MIN TEMP:  26; 6HR MAX TEMP:  29;

HETTINGER ARPT CLEAR     15  12  88 NW3       29.91F
$$

NDZ004>008-012>016-024-026-027-054-200700-
NORTHEAST NORTH DAKOTA

CITY           SKY/WX    TMP DP  RH WIND       PRES   REMARKS
GRAND FORKS    CLOUDY    29  28  96 S6        30.00S
GRND FRKS AFB  CLOUDY    29  29 100 W6        30.00S
DEVILS LAKE    CLOUDY    25  18  74 CALM      29.95R
$$

NDZ022-023-025-028>030-036>039-047>053-200700-
SOUTHEAST NORTH DAKOTA

CITY           SKY/WX    TMP DP  RH WIND       PRES   REMARKS
FARGO          CLOUDY    32  28  85 S13       30.01F
6HR MIN TEMP:  32; 6HR MAX TEMP:  32;

JAMESTOWN      CLOUDY    22  20  92 SW6       29.96R WCI  14
$$



USA.gov is the U.S. government's official web portal to all federal, state and local government web resources and services.